Tracking 29493 objects as of 9-Sep-2024
HD Live streaming from Space Station
objects crossing your sky now

STARLINK-30141

Track STARLINK-30141 now!
10-day predictions
STARLINK-30141 is classified as:


NORAD ID: 57620
Int'l Code: 2023-119U
Perigee: 565.9 km
Apogee: 566.7 km
Inclination: 43.0 °
Period: 95.8 minutes
Semi major axis: 6937 km
RCS: Unknown
Launch date: August 11, 2023
Source: United States (US)
Launch site: AIR FORCE EASTERN TEST RANGE (AFETR)
Your satellite tracking list
Your tracking list is empty




NASA's NSSDC Master Catalog

Two Line Element Set (TLE):
1 57620U 23119U   24252.51928062  .00004986  00000-0  38400-3 0  9999
2 57620  43.0019 175.0937 0000578 285.1958  74.8820 15.02523956 60776
Source of the keplerian elements: AFSPC